This is the latest recevied weather packets stored in our database for station/object WA5TET. If no packets are shown the sender has not sent any weather packets the latest 10 day(s).
| Time | Temp. | Humidity | Pressure | Rain* | Wind** | Luminosity | Snow |
|---|---|---|---|---|---|---|---|
| 1787777751 | 37.78° C | 38% | 1012.5 hPa | 0 mm | - | 864 W/m² | - |
| 1787777448 | 36.67° C | 41% | 1012.3 hPa | 0 mm | - | 542 W/m² | - |
| 1787777148 | 36.67° C | 41% | 1012.6 hPa | 0 mm | - | 449 W/m² | - |
| 1787776846 | 36.67° C | 41% | 1012.5 hPa | 0 mm | - | 417 W/m² | - |
| 1787776546 | 36.11° C | 40% | 1012.7 hPa | 0 mm | - | 396 W/m² | - |
| 1787776244 | 36.67° C | 42% | 1012.8 hPa | 0 mm | - | 402 W/m² | - |
| 1787775943 | 36.67° C | 41% | 1012.8 hPa | 0 mm | - | 389 W/m² | - |
| 1787775638 | 36.67° C | 41% | 1012.9 hPa | 0 mm | - | 396 W/m² | - |
| 1787775336 | 36.67° C | 42% | 1012.9 hPa | 0 mm | - | 428 W/m² | - |
| 1787775031 | 36.11° C | 42% | 1013 hPa | 0 mm | - | 483 W/m² | - |
| 1787774730 | 36.11° C | 42% | 1012.9 hPa | 0 mm | - | 461 W/m² | - |
| 1787774425 | 36.67° C | 42% | 1012.7 hPa | 0 mm | - | 379 W/m² | - |
| 1787774120 | 36.11° C | 42% | 1013 hPa | 0 mm | - | 371 W/m² | - |
| 1787773818 | 36.11° C | 41% | 1012.9 hPa | 0 mm | - | 388 W/m² | - |
| 1787773517 | 36.11° C | 42% | 1013.1 hPa | 0 mm | - | 406 W/m² | - |
| 1787773214 | 36.11° C | 42% | 1013.1 hPa | 0 mm | - | 414 W/m² | - |
| 1787772909 | 35.56° C | 43% | 1013.2 hPa | 0 mm | - | 405 W/m² | - |
| 1787772604 | 36.11° C | 42% | 1013 hPa | 0 mm | - | 392 W/m² | - |
| 1787772303 | 36.11° C | 42% | 1013.3 hPa | 0 mm | - | 354 W/m² | - |
| 1787772001 | 36.11° C | 41% | 1013.2 hPa | 0 mm | - | 320 W/m² | - |
| 1787771697 | 36.11° C | 40% | 1013.3 hPa | 0 mm | - | 281 W/m² | - |
| 1787771395 | 36.11° C | 40% | 1013.3 hPa | 0 mm | - | 273 W/m² | - |
| 1787771095 | 35.56° C | 40% | 1013.4 hPa | 0 mm | - | 304 W/m² | - |
| 1787770790 | 35.56° C | 40% | 1013.2 hPa | 0 mm | - | 365 W/m² | - |
| 1787770489 | 35.56° C | 40% | 1013.3 hPa | 0 mm | - | 418 W/m² | - |
* Rain latest hour (hover to see other rain measurements)
** Current wind speed in m/s (hover to see current wind gust speed)